Flag for China Weather past 2 weeks in Lanchow, Gansu, China

Now
61 °F

Passing clouds.


Feels Like: 61 °F
Forecast: 38 / 75 °F
Wind: 10 mph from Southwest

Location: Lanzhou / Zhongchuan

Current Time: Mar 29, 2015 at 12:44:41 PM

Latest Report: Mar 29, 2015 at 12:00 PM


Visibility: N/A

Pressure: 29.86 "Hg

Humidity: 27%

Dew point: 27 °F

Location of LanchowLocation

Historic Weather in Lanchow — Graph

°F

Lanchow temperature yesterday

Maximum temperature yesterday: 54 °F (at 3:00 PM)
Minimum temperature yesterday: 37 °F (at 2:00 AM)
Average temperature yesterday: 45 °F

Past Weeks' High & Low Weather Summary

 TemperatureHumidityPressure
High63 °F (Mar 26, 4:00 PM)87% (Mar 24, 6:00 AM)30.42 "Hg (Mar 24, 6:00 AM)
Low25 °F (Mar 15, 8:00 AM)12% (Mar 15, 4:00 PM)29.86 "Hg (Mar 15, 4:00 PM)
Average42 °F38%30.13 "Hg
* Reported Mar 14 11:00 AM — Mar 29 11:00 AM, Lanchow, Weather by CustomWeather, © 2015

Note: Actual official high and low records may vary slightly from our data, if they occured in-between our weather recording intervals... More about our weather records

Advertising

Lanchow weather history for previous 24 hours

 ConditionsComfort  
Time TempWeatherWind HumidityBarometerVisibility
11:00 AM
Sun, Mar 29
55 °FPassing clouds.13 mph36%29.89 "HgN/A
10:00 AM50 °FPassing clouds.10 mph43%29.92 "HgN/A
9:00 AM43 °FClear.6 mph57%29.92 "Hg4 mi
8:00 AM32 °FClear.3 mph80%29.92 "Hg4 mi
7:00 AM28 °FClear.6 mph80%29.92 "Hg4 mi
6:00 AM28 °FClear.3 mph86%29.92 "Hg4 mi
5:00 AM28 °FClear.6 mph86%29.92 "Hg4 mi
4:00 AM30 °FClear.3 mph86%29.95 "Hg4 mi
3:00 AM30 °FClear.3 mph86%29.98 "Hg4 mi
2:00 AM34 °FClear.6 mph75%30.01 "Hg4 mi
1:00 AM36 °FDuststorm.6 mph70%30.01 "Hg3 mi
12:00 AM36 °FClear.6 mph70%30.04 "Hg4 mi
11:00 PM
Sat, Mar 28
37 °FClear.6 mph70%30.04 "Hg4 mi
10:00 PM37 °FDuststorm.3 mph70%30.07 "Hg3 mi
9:00 PM39 °FClear.3 mph65%30.07 "Hg4 mi
8:00 PM46 °FSunny.1 mph53%30.04 "Hg10 mi
7:00 PM50 °FPassing clouds.6 mph50%30.04 "HgN/A
6:00 PM52 °FSunny.6 mph50%30.04 "Hg10 mi
5:00 PM54 °FSunny.10 mph41%30.01 "Hg10 mi
4:00 PM54 °FPassing clouds.10 mph44%30.04 "HgN/A
3:00 PM54 °FPassing clouds.13 mph44%30.04 "HgN/A
2:00 PM52 °FSunny.13 mph32%30.07 "Hg10 mi
1:00 PM52 °FClear.6 mph30%30.12 "Hg4 mi
12:00 PM50 °FScattered clouds.3 mph32%30.12 "Hg4 mi
Weather by CustomWeather, © 2015

See weather overviewHow to use our weather pages